| time (UTC) | temp F | wind direction | speed MPH | gust MPH | rain 1hr in | rain 24hr in | rain mn in | humidity % | barometer mb |
| 20260901211536 | 71 | 211 | 1.0 | 2.0 | 0.00 | 0.29 | 0.29 | 88 | 1016.9 |
| 20260901210531 | 71 | 188 | 1.0 | 2.0 | 0.00 | 0.29 | 0.29 | 88 | 1016.8 |
| 20260901205527 | 71 | 135 | 1.0 | 3.0 | 0.00 | 0.29 | 0.29 | 88 | 1016.7 |
| 20260901204523 | 71 | 147 | 1.0 | 2.0 | 0.00 | 0.29 | 0.29 | 88 | 1016.7 |
| 20260901203517 | 72 | 142 | 1.0 | 3.0 | 0.00 | 0.29 | 0.29 | 88 | 1016.7 |
| 20260901202533 | 72 | 136 | 0.0 | 3.0 | 0.00 | 0.29 | 0.29 | 87 | 1016.7 |
| 20260901201550 | 73 | 190 | 1.0 | 3.0 | 0.00 | 0.29 | 0.29 | 85 | 1016.8 |
| 20260901200526 | 72 | 43 | 1.0 | 1.0 | 0.00 | 0.29 | 0.29 | 87 | 1016.7 |
| 20260901195521 | 73 | 197 | 1.0 | 2.0 | 0.00 | 0.29 | 0.29 | 85 | 1016.7 |
| 20260901194517 | 72 | 267 | 1.0 | 2.0 | 0.00 | 0.29 | 0.29 | 87 | 1016.8 |
| 20260901193531 | 72 | 146 | 2.0 | 4.0 | 0.00 | 0.29 | 0.29 | 85 | 1016.6 |
| 20260901192527 | 71 | 170 | 1.0 | 2.0 | 0.00 | 0.29 | 0.29 | 89 | 1016.5 |
| 20260901191522 | 70 | 93 | 3.0 | 8.0 | 0.00 | 0.29 | 0.29 | 89 | 1016.5 |
| 20260901190537 | 69 | 68 | 3.0 | 9.0 | 0.00 | 0.29 | 0.29 | 91 | 1016.7 |
| 20260901185533 | 68 | 70 | 4.0 | 7.0 | 0.00 | 0.29 | 0.29 | 93 | 1016.8 |
| 20260901184529 | 68 | 75 | 3.0 | 8.0 | 0.00 | 0.29 | 0.29 | 95 | 1016.9 |
| 20260901183525 | 68 | 66 | 2.0 | 4.0 | 0.00 | 0.29 | 0.29 | 94 | 1017.0 |
| 20260901182521 | 67 | 55 | 3.0 | 6.0 | 0.00 | 0.29 | 0.29 | 94 | 1017.0 |
| 20260901181517 | 68 | 77 | 2.0 | 6.0 | 0.00 | 0.29 | 0.29 | 94 | 1016.9 |
| 20260901180533 | 68 | 93 | 1.0 | 4.0 | 0.00 | 0.29 | 0.29 | 94 | 1016.8 |
| 20260901175549 | 68 | 71 | 2.0 | 4.0 | 0.00 | 0.29 | 0.29 | 95 | 1016.7 |
| 20260901174525 | 68 | 85 | 2.0 | 4.0 | 0.00 | 0.29 | 0.29 | 97 | 1016.8 |
| 20260901173521 | 68 | 95 | 2.0 | 6.0 | 0.00 | 0.29 | 0.29 | 97 | 1016.8 |
| 20260901172518 | 67 | 142 | 1.0 | 3.0 | 0.00 | 0.29 | 0.29 | 98 | 1016.7 |
| 20260901171534 | 67 | 79 | 1.0 | 2.0 | 0.00 | 0.29 | 0.29 | 99 | 1016.9 |
| 20260901170550 | 67 | 51 | 1.0 | 2.0 | 0.00 | 0.29 | 0.29 | 98 | 1017.0 |
| 20260901165525 | 67 | 51 | 2.0 | 3.0 | 0.00 | 0.29 | 0.29 | 98 | 1016.8 |
| 20260901164520 | 67 | 48 | 1.0 | 3.0 | 0.00 | 0.29 | 0.29 | 99 | 1016.9 |
| 20260901163516 | 67 | 31 | 1.0 | 3.0 | 0.00 | 0.29 | 0.29 | 99 | 1017.0 |
| 20260901162531 | 67 | 36 | 2.0 | 4.0 | 0.00 | 0.29 | 0.29 | 99 | 1017.0 |
| 20260901161526 | 67 | 21 | 2.0 | 7.0 | 0.01 | 0.29 | 0.29 | 99 | 1016.9 |
| 20260901160522 | 67 | 34 | 2.0 | 4.0 | 0.01 | 0.29 | 0.29 | 99 | 1016.9 |
| 20260901155518 | 67 | 333 | 2.0 | 4.0 | 0.02 | 0.29 | 0.29 | 99 | 1016.8 |
| 20260901154534 | 66 | 266 | 1.0 | 3.0 | 0.03 | 0.29 | 0.29 | 99 | 1016.7 |
| 20260901153531 | 66 | 0 | 2.0 | 4.0 | 0.05 | 0.29 | 0.29 | 99 | 1016.3 |
| 20260901152526 | 66 | 45 | 3.0 | 7.0 | 0.06 | 0.29 | 0.29 | 99 | 1016.0 |
| 20260901151522 | 65 | 57 | 3.0 | 4.0 | 0.06 | 0.28 | 0.28 | 99 | 1015.9 |
| 20260901150518 | 65 | 92 | 2.0 | 3.0 | 0.06 | 0.28 | 0.28 | 99 | 1015.9 |
| 20260901145534 | 65 | 93 | 1.0 | 3.0 | 0.05 | 0.27 | 0.27 | 99 | 1016.6 |
| 20260901144530 | 65 | 129 | 1.0 | 2.0 | 0.04 | 0.26 | 0.26 | 99 | 1016.6 |
| 20260901143526 | 66 | 76 | 1.0 | 2.0 | 0.02 | 0.24 | 0.24 | 99 | 1016.8 |
| 20260901142523 | 65 | 45 | 2.0 | 4.0 | 0.01 | 0.23 | 0.23 | 99 | 1016.6 |
| 20260901141518 | 66 | 59 | 3.0 | 4.0 | 0.00 | 0.22 | 0.22 | 99 | 1016.5 |
| 20260901140534 | 65 | 9 | 1.0 | 2.0 | 0.00 | 0.22 | 0.22 | 99 | 1016.4 |
| 20260901135530 | 65 | 67 | 2.0 | 3.0 | 0.00 | 0.22 | 0.22 | 99 | 1016.1 |
| 20260901134525 | 65 | 65 | 2.0 | 4.0 | 0.00 | 0.22 | 0.22 | 99 | 1016.3 |
| 20260901133540 | 65 | 87 | 1.0 | 2.0 | 0.00 | 0.22 | 0.22 | 99 | 1016.2 |
| 20260901132515 | 65 | 119 | 1.0 | 2.0 | 0.00 | 0.22 | 0.22 | 99 | 1016.5 |
| 20260901131531 | 64 | 66 | 3.0 | 6.0 | 0.00 | 0.22 | 0.22 | 99 | 1016.9 |
| 20260901130527 | 64 | 55 | 2.0 | 3.0 | 0.00 | 0.22 | 0.22 | 99 | 1017.0 |
| 20260901125523 | 64 | 87 | 1.0 | 3.0 | 0.00 | 0.22 | 0.22 | 99 | 1017.2 |
| 20260901124518 | 64 | 64 | 1.0 | 2.0 | 0.00 | 0.22 | 0.22 | 99 | 1017.4 |
| 20260901123535 | 64 | 46 | 2.0 | 3.0 | 0.00 | 0.22 | 0.22 | 99 | 1017.3 |
| 20260901122551 | 64 | 45 | 2.0 | 4.0 | 0.01 | 0.22 | 0.22 | 99 | 1017.1 |
| 20260901121546 | 64 | 57 | 3.0 | 4.0 | 0.01 | 0.22 | 0.22 | 99 | 1017.3 |
| 20260901120542 | 64 | 64 | 2.0 | 3.0 | 0.01 | 0.22 | 0.22 | 99 | 1017.3 |
| 20260901115518 | 64 | 81 | 1.0 | 3.0 | 0.02 | 0.22 | 0.22 | 99 | 1017.4 |
| 20260901114534 | 64 | 159 | 0.0 | 1.0 | 0.06 | 0.22 | 0.22 | 99 | 1017.4 |
| 20260901113529 | 64 | 191 | 1.0 | 2.0 | 0.10 | 0.22 | 0.22 | 99 | 1017.5 |
| 20260901112524 | 64 | 224 | 0.0 | 1.0 | 0.12 | 0.21 | 0.21 | 99 | 1017.2 |
| 20260901111520 | 64 | 242 | 0.0 | 1.0 | 0.15 | 0.21 | 0.21 | 99 | 1017.1 |
| 20260901110535 | 64 | 190 | 0.0 | 1.0 | 0.17 | 0.21 | 0.21 | 99 | 1016.9 |
| 20260901105530 | 64 | 312 | 4.0 | 8.0 | 0.18 | 0.20 | 0.20 | 99 | 1016.8 |
| 20260901104527 | 64 | 187 | 0.0 | 1.0 | 0.15 | 0.16 | 0.16 | 99 | 1016.2 |
| 20260901103522 | 64 | 197 | 0.0 | 1.0 | 0.12 | 0.12 | 0.12 | 99 | 1016.8 |
| 20260901102519 | 64 | 0.0 | 0.0 | 0.09 | 0.09 | 0.09 | 99 | 1017.1 | |
| 20260901101535 | 64 | 0.0 | 0.0 | 0.06 | 0.06 | 0.06 | 99 | 1017.2 | |
| 20260901100532 | 65 | 192 | 0.0 | 1.0 | 0.04 | 0.04 | 0.04 | 99 | 1017.2 |
| 20260901095526 | 65 | 194 | 0.0 | 1.0 | 0.02 | 0.02 | 0.02 | 99 | 1017.1 |
| 20260901094521 | 65 | 217 | 0.0 | 1.0 | 0.01 | 0.01 | 0.01 | 99 | 1016.8 |
| 20260901093516 | 65 | 212 | 0.0 | 1.0 | 0.00 | 0.00 | 0.00 | 99 | 1016.5 |
| 20260901092532 | 65 | 220 | 0.0 | 1.0 | 0.00 | 0.00 | 0.00 | 99 | 1016.6 |
| 20260901091527 | 65 | 0.0 | 0.0 | 0.00 | 0.00 | 0.00 | 99 | 1016.6 | |
| 20260901090522 | 65 | 0.0 | 0.0 | 0.00 | 0.00 | 0.00 | 99 | 1016.7 | |
| 20260901085518 | 65 | 199 | 0.0 | 2.0 | 0.00 | 0.01 | 0.00 | 99 | 1016.8 |
| 20260901084535 | 65 | 0.0 | 0.0 | 0.00 | 0.01 | 0.00 | 99 | 1016.8 | |
| 20260901083531 | 65 | 0.0 | 0.0 | 0.00 | 0.01 | 0.00 | 99 | 1017.0 | |
| 20260901082527 | 65 | 0.0 | 0.0 | 0.00 | 0.01 | 0.00 | 99 | 1017.0 | |
| 20260901081522 | 65 | 221 | 0.0 | 1.0 | 0.00 | 0.01 | 0.00 | 99 | 1017.0 |
| 20260901080538 | 65 | 0.0 | 0.0 | 0.00 | 0.01 | 0.00 | 99 | 1017.1 | |
| 20260901075554 | 65 | 253 | 1.0 | 2.0 | 0.00 | 0.01 | 0.00 | 99 | 1016.9 |
| 20260901074530 | 65 | 180 | 1.0 | 1.0 | 0.00 | 0.01 | 0.00 | 99 | 1017.2 |
| 20260901073526 | 65 | 225 | 1.0 | 1.0 | 0.00 | 0.01 | 0.00 | 99 | 1017.3 |
| 20260901072522 | 65 | 221 | 1.0 | 1.0 | 0.00 | 0.01 | 0.00 | 99 | 1017.0 |
| 20260901071519 | 65 | 219 | 0.0 | 1.0 | 0.00 | 0.01 | 0.00 | 99 | 1016.9 |
| 20260901070534 | 65 | 174 | 0.0 | 1.0 | 0.00 | 0.01 | 0.00 | 99 | 1016.9 |
| 20260901065530 | 65 | 200 | 0.0 | 1.0 | 0.00 | 0.01 | 0.00 | 99 | 1016.9 |
| 20260901064526 | 65 | 213 | 1.0 | 2.0 | 0.00 | 0.01 | 0.00 | 99 | 1017.2 |
| 20260901063522 | 65 | 0.0 | 0.0 | 0.00 | 0.01 | 0.00 | 99 | 1017.4 | |
| 20260901062538 | 65 | 203 | 0.0 | 1.0 | 0.00 | 0.01 | 0.00 | 99 | 1017.7 |
| 20260901061534 | 65 | 209 | 1.0 | 2.0 | 0.00 | 0.01 | 0.00 | 99 | 1017.8 |
| 20260901060530 | 65 | 211 | 0.0 | 1.0 | 0.00 | 0.01 | 0.00 | 99 | 1017.8 |
| 20260901055526 | 65 | 0.0 | 0.0 | 0.00 | 0.01 | 0.00 | 99 | 1018.0 | |
| 20260901054522 | 65 | 0.0 | 0.0 | 0.00 | 0.01 | 0.00 | 99 | 1017.9 | |
| 20260901053538 | 65 | 0.0 | 0.0 | 0.00 | 0.01 | 0.00 | 99 | 1018.1 | |
| 20260901052533 | 65 | 0.0 | 0.0 | 0.00 | 0.01 | 0.00 | 99 | 1018.3 | |
| 20260901051528 | 65 | 0.0 | 0.0 | 0.00 | 0.01 | 0.00 | 99 | 1018.3 | |
| 20260901050525 | 65 | 0.0 | 0.0 | 0.00 | 0.01 | 0.00 | 99 | 1018.3 | |
| 20260901045528 | 65 | 0.0 | 0.0 | 0.00 | 0.01 | 0.00 | 99 | 1018.3 | |
| 20260901044524 | 65 | 208 | 0.0 | 1.0 | 0.00 | 0.01 | 0.00 | 99 | 1018.5 |
| 20260901043520 | 65 | 0.0 | 0.0 | 0.00 | 0.01 | 0.00 | 99 | 1018.4 | |
| 20260901042535 | 65 | 160 | 1.0 | 1.0 | 0.00 | 0.01 | 0.00 | 99 | 1018.4 |
| 20260901041531 | 66 | 0.0 | 0.0 | 0.00 | 0.01 | 0.00 | 99 | 1018.2 | |
| 20260901040527 | 66 | 218 | 0.0 | 1.0 | 0.00 | 0.01 | 0.00 | 99 | 1017.8 |
| 20260901035524 | 66 | 204 | 0.0 | 1.0 | 0.00 | 0.01 | 0.01 | 99 | 1018.0 |
| 20260901034517 | 66 | 0.0 | 0.0 | 0.00 | 0.01 | 0.01 | 99 | 1018.0 | |
| 20260901033534 | 66 | 0.0 | 0.0 | 0.00 | 0.01 | 0.01 | 99 | 1018.0 | |
| 20260901032529 | 66 | 0.0 | 0.0 | 0.00 | 0.01 | 0.01 | 99 | 1018.2 | |
| 20260901031525 | 66 | 0.0 | 0.0 | 0.00 | 0.01 | 0.01 | 99 | 1018.4 | |
| 20260901030522 | 66 | 0.0 | 0.0 | 0.00 | 0.01 | 0.01 | 99 | 1018.2 | |
| 20260901025517 | 66 | 0.0 | 0.0 | 0.00 | 0.01 | 0.01 | 98 | 1018.2 | |
| 20260901024533 | 66 | 0.0 | 0.0 | 0.00 | 0.01 | 0.01 | 98 | 1018.3 | |
| 20260901023528 | 66 | 0.0 | 0.0 | 0.00 | 0.01 | 0.01 | 98 | 1018.3 | |
| 20260901022523 | 66 | 0.0 | 0.0 | 0.00 | 0.01 | 0.01 | 98 | 1018.4 | |
| 20260901021520 | 66 | 0.0 | 0.0 | 0.00 | 0.01 | 0.01 | 98 | 1018.5 | |
| 20260901020516 | 66 | 0.0 | 0.0 | 0.00 | 0.01 | 0.01 | 97 | 1018.4 | |
| 20260901015533 | 66 | 0.0 | 0.0 | 0.00 | 0.01 | 0.01 | 97 | 1018.5 | |
| 20260901014547 | 66 | 199 | 0.0 | 1.0 | 0.00 | 0.01 | 0.01 | 97 | 1018.4 |
| 20260901013522 | 67 | 220 | 0.0 | 1.0 | 0.00 | 0.01 | 0.01 | 97 | 1018.2 |
| 20260901012518 | 67 | 0.0 | 0.0 | 0.00 | 0.01 | 0.01 | 96 | 1018.2 | |
| 20260901011534 | 67 | 0.0 | 0.0 | 0.00 | 0.01 | 0.01 | 96 | 1018.3 | |
| 20260901010530 | 67 | 0.0 | 0.0 | 0.00 | 0.01 | 0.01 | 95 | 1018.3 | |
| 20260901005526 | 67 | 0.0 | 0.0 | 0.00 | 0.01 | 0.01 | 94 | 1018.4 | |
| 20260901004521 | 68 | 187 | 1.0 | 1.0 | 0.00 | 0.01 | 0.01 | 93 | 1018.5 |
| 20260901003517 | 68 | 179 | 1.0 | 2.0 | 0.00 | 0.01 | 0.01 | 92 | 1018.4 |
| 20260901002532 | 69 | 194 | 1.0 | 1.0 | 0.00 | 0.01 | 0.01 | 91 | 1018.2 |
| 20260901001528 | 69 | 242 | 2.0 | 4.0 | 0.00 | 0.01 | 0.01 | 89 | 1018.5 |
| 20260901000523 | 69 | 249 | 2.0 | 4.0 | 0.00 | 0.01 | 0.01 | 91 | 1018.3 |
| 20260831235520 | 68 | 240 | 1.0 | 3.0 | 0.00 | 0.01 | 0.01 | 95 | 1018.2 |
| 20260831234655 | 68 | 0.0 | 0.0 | 0.00 | 0.01 | 0.01 | 95 | 1018.1 | |
| 20260831233531 | 69 | 205 | 1.0 | 1.0 | 0.00 | 0.01 | 0.01 | 94 | 1018.2 |
| 20260831232527 | 69 | 203 | 0.0 | 2.0 | 0.00 | 0.01 | 0.01 | 94 | 1018.3 |
| 20260831231522 | 69 | 216 | 1.0 | 1.0 | 0.00 | 0.01 | 0.01 | 92 | 1018.3 |
| 20260831230517 | 69 | 218 | 1.0 | 2.0 | 0.00 | 0.01 | 0.01 | 91 | 1018.4 |
| 20260831225613 | 70 | 215 | 1.0 | 2.0 | 0.00 | 0.01 | 0.01 | 90 | 1018.6 |
| 20260831224529 | 70 | 0.0 | 0.0 | 0.00 | 0.01 | 0.01 | 89 | 1018.7 | |
| 20260831223523 | 70 | 0.0 | 0.0 | 0.00 | 0.01 | 0.01 | 89 | 1018.7 | |
| 20260831222519 | 71 | 0.0 | 0.0 | 0.00 | 0.01 | 0.01 | 89 | 1018.6 | |
| 20260831221555 | 72 | 0.0 | 0.0 | 0.00 | 0.02 | 0.01 | 86 | 1018.7 | |
| 20260831220531 | 73 | 0.0 | 0.0 | 0.00 | 0.02 | 0.01 | 83 | 1018.6 | |
| 20260831215526 | 74 | 0.0 | 0.0 | 0.00 | 0.02 | 0.01 | 82 | 1018.5 | |
| 20260831214522 | 74 | 0.0 | 0.0 | 0.00 | 0.02 | 0.01 | 78 | 1018.7 | |
| 20260831213518 | 75 | 194 | 0.0 | 2.0 | 0.00 | 0.02 | 0.01 | 77 | 1018.7 |
| 20260831212533 | 76 | 223 | 0.0 | 1.0 | 0.00 | 0.02 | 0.01 | 74 | 1018.6 |